Theta_e
354 357 358 359 361 360 358 357 355 356 356 355 355 354 352 349 347 345 344 344 344 344 343 343 345 345 343 342 340 339 339 338 336 333 331 330 329 325 321 320 319 318 319 319 318 318 317 318 319 318 318 319 319 319 319 319 319 318 315 316 316 315 317
355 357 359 359 359 358 357 356 355 356 355 355 354 353 351 349 347 346 345 345 345 344 343 343 344 344 343 340 339 339 338 337 335 332 330 330 326 322 318 318 318 318 319 319 317 317 317 318 319 319 319 319 318 318 317 316 317 316 314 315 315 315 317
355 358 359 358 358 356 355 355 355 355 355 355 354 352 350 349 347 346 346 347 346 344 344 343 343 344 342 340 339 339 338 336 334 331 330 327 323 320 317 315 317 319 319 319 319 319 319 319 319 320 320 319 318 318 317 315 314 313 314 315 314 313 315
356 358 358 357 356 354 354 354 355 355 354 355 354 352 350 349 348 348 347 347 345 344 345 343 343 343 341 339 339 338 338 335 331 329 327 323 321 320 316 314 317 319 319 319 319 319 319 319 319 319 319 319 318 317 316 315 314 312 314 316 316 314 313
357 357 356 355 354 353 354 355 355 355 354 354 353 351 350 349 348 347 347 346 345 345 346 344 343 342 340 339 338 337 336 332 329 328 324 321 319 319 316 316 318 319 318 319 318 318 319 320 319 319 319 319 318 318 317 316 315 313 314 315 315 315 314
356 354 354 354 354 354 355 354 354 354 353 353 352 349 349 348 347 346 346 347 347 346 345 343 340 340 339 338 337 336 333 330 329 326 321 319 319 318 317 318 318 318 319 320 319 318 319 320 320 320 320 319 318 318 317 317 317 316 314 314 314 314 314
353 353 353 353 354 355 354 354 354 354 353 352 351 348 348 346 345 346 347 348 347 346 344 341 339 339 338 337 336 334 332 330 328 322 318 318 319 318 317 318 318 319 319 319 318 317 317 318 319 320 319 319 318 318 317 317 318 318 317 316 316 315 315
352 352 352 353 354 354 354 354 353 353 352 350 349 348 347 345 345 347 348 347 346 344 342 340 339 337 336 335 334 332 330 328 324 318 318 319 318 318 318 318 319 320 319 317 316 317 318 318 319 320 319 318 317 317 317 317 318 318 318 318 317 316 315
351 352 352 353 354 354 353 353 352 351 351 349 348 348 347 346 347 347 347 346 344 343 341 340 338 336 335 334 332 330 328 325 319 317 319 319 318 318 319 319 320 320 320 319 318 319 320 320 319 320 319 317 317 317 316 316 317 318 318 319 318 318 317
352 351 352 353 353 354 353 351 351 350 350 349 348 348 348 347 347 347 346 344 343 342 341 339 337 335 333 332 330 328 325 321 318 318 320 319 318 319 319 319 320 319 319 320 320 320 320 319 319 320 320 320 319 318 315 316 318 318 318 318 318 318 318
352 351 352 353 353 353 352 351 350 350 349 348 348 349 348 347 347 347 345 343 341 340 339 337 335 333 331 329 327 325 322 319 319 320 319 319 319 319 320 320 319 319 319 320 320 320 320 320 320 321 321 321 321 320 318 318 318 319 319 319 318 318 319
352 352 353 352 352 352 351 350 350 350 349 348 349 350 348 346 346 345 343 341 340 339 337 335 332 331 329 326 325 323 321 320 320 319 318 318 319 319 320 320 319 319 319 320 320 320 320 321 321 321 321 321 321 321 320 320 319 319 319 319 319 319 318
351 352 352 351 351 350 351 351 350 349 348 348 349 349 347 345 344 344 342 339 339 338 336 332 330 329 326 324 322 321 320 320 320 318 317 318 319 319 320 320 320 320 320 320 321 320 320 320 320 320 321 321 321 321 320 320 320 320 320 320 320 319 319
352 352 351 351 350 349 350 351 349 347 347 347 348 347 346 343 343 342 341 339 338 336 333 330 329 327 325 323 321 320 320 320 319 318 318 318 319 319 319 320 320 320 320 320 321 320 320 320 320 320 321 321 322 321 320 320 321 321 321 321 321 320 320
352 352 351 350 349 348 348 349 347 345 345 347 347 346 344 342 342 341 339 338 338 334 331 329 326 324 323 321 320 319 320 320 319 319 318 318 319 319 320 320 320 320 320 320 321 321 321 321 320 320 321 322 322 322 321 321 322 321 320 321 322 322 321
351 350 350 349 348 348 347 347 346 344 344 345 345 343 341 340 341 340 338 338 336 332 329 326 324 322 320 319 318 318 319 319 319 319 318 318 319 320 320 320 320 320 320 320 321 321 321 321 321 321 322 322 322 322 322 322 321 320 319 319 320 322 323
351 350 350 349 348 348 347 346 346 343 342 341 339 337 338 339 341 340 339 338 334 330 326 324 323 321 319 317 317 316 315 316 318 319 318 318 319 320 320 320 319 320 320 320 321 320 320 321 322 322 322 322 322 322 321 321 321 320 319 319 319 320 323
351 350 349 348 347 347 345 345 346 343 340 339 337 336 338 340 340 339 338 336 331 327 325 325 324 322 319 318 315 312 312 315 318 319 319 319 319 320 319 319 320 320 320 320 320 319 320 321 321 321 321 321 322 322 322 322 321 320 319 320 320 319 321
351 350 349 348 347 347 345 345 347 344 341 341 341 339 339 340 339 338 337 333 329 326 326 326 325 324 322 320 316 313 313 315 317 318 319 319 319 319 319 319 320 320 320 321 321 321 321 321 321 320 319 319 320 321 322 322 322 321 319 320 320 319 320
351 350 349 348 347 347 346 346 347 346 344 342 341 339 339 339 338 338 336 331 328 327 327 327 326 325 324 322 319 316 315 316 317 318 319 320 318 319 319 319 319 320 320 321 321 322 322 321 322 321 319 319 320 321 322 323 322 320 319 319 320 319 320
351 350 350 349 348 347 346 346 346 346 345 342 339 338 339 338 338 337 335 331 328 328 328 327 326 326 324 323 322 319 317 319 319 318 320 320 318 318 318 318 319 320 320 320 321 322 322 322 322 322 320 320 320 320 322 323 321 319 318 319 319 319 320
351 350 350 350 348 347 347 345 345 345 345 342 339 338 338 338 337 337 334 330 329 330 328 327 326 326 324 324 323 321 320 321 321 319 319 319 318 318 318 318 319 319 320 321 321 322 322 322 322 321 320 319 318 318 321 322 321 318 318 318 318 318 321
351 350 351 350 348 347 347 345 345 345 344 342 340 338 338 338 337 336 333 331 330 330 328 326 326 326 324 323 323 321 320 321 321 320 319 319 318 318 318 318 319 319 320 320 321 321 322 322 322 321 319 318 318 318 320 321 322 320 318 317 317 318 320
352 351 350 350 348 348 346 344 344 343 342 342 340 339 338 337 337 336 333 331 332 330 327 326 326 325 324 323 322 321 320 320 321 321 321 319 319 318 318 318 319 319 320 320 321 321 322 322 322 321 319 318 318 319 319 320 321 320 318 318 317 316 318
352 351 349 349 348 347 346 345 343 342 341 341 340 339 338 338 337 335 333 333 332 330 328 326 325 325 324 323 322 321 320 320 320 321 322 320 319 318 318 318 318 319 320 320 321 322 322 322 322 321 320 320 319 319 319 320 321 320 318 318 317 315 315
351 350 349 347 347 346 345 344 343 341 340 339 339 339 338 337 337 335 333 333 332 331 328 326 326 325 323 322 322 321 321 320 319 320 322 321 320 319 318 318 319 319 320 320 321 321 322 322 322 322 322 321 320 320 320 321 321 319 318 317 317 315 313
349 348 348 347 346 346 344 343 343 341 339 338 339 339 338 338 337 336 334 334 333 332 330 327 327 325 322 321 321 320 320 320 318 319 321 321 319 319 318 318 319 319 320 321 321 322 322 322 321 321 322 321 321 320 321 321 320 318 316 316 317 315 313
348 347 346 346 345 345 344 343 342 341 340 339 339 339 340 339 337 336 336 335 333 332 331 330 328 326 323 321 320 320 320 319 318 319 320 320 319 318 318 318 319 319 320 321 322 322 322 321 321 321 321 321 321 321 321 321 320 317 316 316 316 315 313
347 346 345 345 345 344 344 343 342 341 340 339 338 340 340 339 338 337 337 336 334 333 332 331 329 327 324 322 320 320 320 319 319 320 320 320 319 319 320 319 319 320 321 321 322 322 322 321 321 321 321 321 321 322 322 322 321 319 317 316 316 316 315
348 346 345 345 344 344 343 342 342 341 340 339 338 339 339 339 338 337 336 336 335 333 332 332 330 328 325 322 321 320 319 319 320 321 320 319 319 320 321 321 320 321 321 322 322 322 322 322 321 322 322 322 322 322 322 323 323 321 318 316 315 316 316
347 346 345 344 344 343 342 342 342 340 340 339 337 338 339 338 337 336 336 337 336 334 332 332 330 328 325 323 322 321 320 321 321 321 320 320 320 320 320 320 321 321 322 322 322 322 322 322 322 322 322 322 322 323 323 323 324 322 320 317 315 315 316
347 346 345 343 343 343 342 342 342 340 339 339 337 338 339 338 336 335 335 336 336 334 332 331 330 328 326 324 322 321 322 322 322 321 320 320 320 320 320 320 320 321 321 322 322 322 322 322 322 322 322 323 323 324 324 324 324 323 322 321 319 318 317
347 346 345 343 343 342 342 342 341 340 339 338 337 338 338 337 336 335 336 337 336 333 332 331 330 327 326 325 323 323 323 323 321 320 320 320 320 321 321 321 321 321 321 322 322 322 322 322 322 322 322 323 324 325 326 326 326 325 324 324 324 324 323
347 346 344 343 343 342 342 342 341 339 338 337 337 338 337 337 336 336 336 336 334 332 332 330 329 327 327 326 324 323 323 322 321 320 320 320 321 321 321 322 321 321 322 322 322 323 323 323 323 323 323 323 324 324 325 325 325 325 325 325 326 325 324
347 345 343 343 342 341 341 341 340 339 337 337 337 337 337 336 336 335 335 334 332 332 332 329 328 327 327 325 324 323 322 322 321 321 321 321 321 321 322 322 322 322 323 323 323 322 322 322 323 323 324 324 324 324 325 325 324 324 324 323 323 322 321
345 344 343 342 341 340 340 340 338 337 337 337 337 337 336 336 335 334 333 332 331 331 330 328 327 327 326 324 324 323 323 322 322 322 322 321 321 322 322 322 321 321 321 322 321 319 319 320 322 322 322 323 323 323 324 323 323 321 321 321 321 321 320
344 343 343 341 340 340 340 339 338 337 337 337 337 336 336 335 334 333 332 332 331 331 330 328 327 326 325 325 324 323 323 322 322 322 322 321 321 322 322 322 321 318 317 319 320 319 320 321 322 321 322 322 322 321 321 320 319 318 318 318 319 319 320
343 342 340 340 340 340 340 339 339 338 337 337 337 336 335 335 334 333 332 331 330 330 330 329 327 326 326 325 324 323 323 323 323 322 322 322 322 322 322 324 323 321 320 320 321 321 321 322 322 322 322 321 321 320 318 317 316 317 317 317 318 319 320
Wind_Speed
18 20 22 23 25 28 28 30 30 29 26 22 23 24 24 26 26 25 26 24 22 22 21 20 21 21 19 14 12 13 13 13 13 12 8 7 6 4 4 4 4 4 5 5 5 6 7 8 7 6 7 7 6 7 7 7 7 7 10 10 10 10 10
16 17 20 21 24 27 27 29 30 29 25 22 23 27 28 27 26 25 25 22 20 21 21 20 20 19 15 13 14 16 15 15 15 12 9 7 5 3 5 5 4 5 6 6 6 7 7 7 6 5 6 6 7 8 8 10 9 8 9 10 9 10 10
13 15 18 20 22 25 27 29 29 27 25 22 24 29 30 27 25 24 23 20 20 21 20 19 19 18 15 15 16 16 15 15 14 10 8 6 4 5 5 5 5 7 8 7 6 6 6 7 6 5 6 6 7 8 9 11 12 11 11 11 10 11 10
11 13 16 18 21 23 25 27 28 26 25 23 24 28 28 25 22 20 19 19 20 21 19 18 19 18 17 18 18 16 15 14 12 10 8 7 8 8 6 5 8 9 9 8 8 8 7 6 6 6 6 6 7 8 10 12 13 14 13 10 10 11 11
11 13 15 16 19 22 24 26 26 26 26 25 23 22 22 21 19 18 19 19 20 19 16 15 17 17 18 19 18 16 16 15 13 11 9 8 9 9 7 8 10 10 9 9 8 9 8 6 4 5 6 6 7 8 9 11 13 14 13 10 9 9 10
12 12 14 16 19 21 24 25 23 24 27 25 21 19 19 19 18 19 22 22 21 19 15 14 17 17 18 18 17 17 17 16 13 12 10 10 10 9 9 10 11 11 10 9 8 8 7 6 5 5 5 5 6 6 7 8 9 12 12 11 10 10 10
11 12 14 17 20 21 22 22 22 25 27 24 21 20 19 18 18 20 21 21 21 18 15 16 18 18 18 18 17 18 17 14 13 12 11 11 11 11 11 11 11 10 10 10 10 9 8 7 7 6 5 5 6 6 7 8 8 8 9 9 9 9 9
9 12 14 17 19 19 20 20 22 24 25 24 22 21 19 18 19 20 20 20 19 17 14 15 18 19 19 19 19 17 15 14 13 12 13 14 13 12 12 12 12 11 11 11 12 11 9 7 7 6 6 6 7 6 6 8 8 7 6 7 7 7 7
9 11 13 15 17 17 17 19 21 22 24 26 25 23 22 21 20 20 19 19 19 18 16 15 17 19 19 19 18 16 14 14 13 13 15 15 15 14 13 12 13 12 12 12 11 10 8 7 8 8 8 8 8 8 7 8 7 6 6 6 6 6 6
9 9 11 14 15 15 17 20 22 23 24 26 25 24 25 24 21 20 19 19 19 18 17 17 17 19 19 18 16 14 13 13 13 15 16 15 15 15 13 13 12 12 12 12 10 9 8 9 9 8 8 8 7 8 8 8 7 5 5 5 5 5 6
9 9 11 12 12 15 18 21 24 24 23 23 24 26 27 24 22 20 19 19 19 18 18 18 19 19 18 16 15 14 14 14 15 17 17 16 16 15 14 12 11 11 11 10 9 8 8 7 7 6 5 5 5 5 7 7 7 5 5 4 5 5 6
10 10 11 11 12 16 19 22 24 25 24 24 25 27 26 24 23 22 21 20 20 19 19 20 21 19 17 15 15 15 15 16 17 18 17 16 16 15 13 11 11 10 9 8 8 7 5 4 4 4 3 4 4 3 5 5 5 5 6 5 5 6 7
11 11 11 12 15 19 23 25 25 25 26 25 26 27 26 25 25 25 24 23 21 20 21 21 20 18 16 16 15 15 15 16 16 17 16 16 15 14 12 11 10 10 8 7 7 6 4 3 3 2 2 2 3 2 3 4 4 5 6 5 6 6 6
11 11 11 13 15 17 22 26 24 22 24 25 27 28 26 25 26 26 25 23 21 22 23 22 19 17 17 17 16 15 15 15 15 16 16 16 15 14 12 10 10 10 8 7 6 5 5 4 3 2 2 1 1 0 3 4 4 4 4 4 5 5 5
11 10 11 12 13 13 17 22 22 20 22 24 27 28 27 27 26 25 24 22 22 23 23 20 18 17 16 16 15 14 15 16 15 16 16 16 16 14 12 10 10 10 9 7 6 6 5 5 4 3 3 2 1 1 3 4 3 3 3 3 4 5 5
9 10 11 12 14 14 14 17 20 20 22 26 28 28 31 30 26 24 24 23 23 23 21 19 18 17 15 14 14 15 16 16 15 15 15 15 15 14 12 10 10 10 9 7 6 6 5 5 5 4 3 2 1 2 3 2 3 6 5 4 4 5 5
11 11 13 14 15 18 17 18 20 19 20 22 22 23 28 29 25 22 23 24 24 23 21 20 18 16 14 13 13 14 15 15 16 15 15 15 14 13 12 11 10 10 9 7 7 7 6 6 5 5 4 3 1 1 1 2 5 7 6 6 6 6 5
14 14 16 17 20 22 21 21 22 20 18 19 19 20 22 23 22 22 24 24 24 23 22 20 18 15 13 12 12 13 14 15 16 16 15 15 14 13 12 11 10 9 9 8 7 6 6 6 6 5 5 4 3 2 0 3 8 9 7 7 7 7 6
16 17 17 19 22 23 22 22 24 24 22 22 22 22 21 21 23 24 25 25 25 24 23 20 17 15 13 12 12 13 14 15 15 16 16 15 14 13 12 11 11 10 9 8 7 7 6 6 5 5 5 4 4 3 1 3 9 9 7 7 8 7 6
16 17 17 18 21 22 23 24 26 26 24 23 24 25 24 24 25 25 24 25 25 24 21 18 17 15 14 13 12 12 13 14 15 15 16 15 14 13 12 12 11 9 9 8 7 7 6 6 6 5 5 5 4 3 2 4 8 8 7 8 7 7 7
15 17 17 18 20 22 24 26 27 27 25 25 27 28 26 25 25 25 25 26 26 23 19 18 17 15 15 13 11 11 12 13 14 15 15 15 14 14 13 13 11 10 9 9 8 7 7 7 6 6 6 5 5 4 3 5 7 7 8 8 7 8 7
16 18 18 18 19 20 20 22 26 26 23 25 29 28 27 27 28 28 28 28 26 23 19 19 18 16 16 14 11 11 12 13 13 13 14 15 14 14 14 13 12 11 10 9 8 8 8 7 6 6 6 5 5 5 4 6 7 7 8 9 8 8 7
13 17 18 17 15 14 14 16 19 20 18 23 30 30 29 30 31 30 30 29 27 24 22 21 20 18 17 16 14 12 12 12 13 12 12 14 14 14 14 14 13 12 11 10 9 8 8 8 7 7 7 6 6 6 5 6 7 8 9 9 8 7 7
11 16 18 17 14 12 12 14 16 16 15 21 30 32 30 31 31 30 30 31 29 27 25 24 22 21 19 18 16 14 13 12 12 12 11 12 13 14 13 13 13 13 12 11 10 9 9 8 7 7 7 7 7 6 6 7 7 8 9 9 8 6 6
12 15 16 16 14 12 12 13 14 14 14 18 28 33 32 30 30 29 30 31 30 28 28 27 24 21 20 18 17 15 12 11 11 12 11 11 13 13 12 13 13 13 13 12 10 10 9 7 7 7 7 8 7 6 7 7 8 8 9 9 8 5 5
11 12 13 13 13 12 11 11 12 13 14 16 25 32 32 29 29 29 29 30 30 29 29 28 24 20 19 19 17 15 13 11 11 12 10 10 12 13 13 13 14 13 13 12 10 10 9 8 8 8 8 8 8 7 7 8 9 9 9 9 8 5 5
10 10 11 11 12 11 11 11 11 12 13 14 20 29 30 29 29 29 29 29 30 30 29 26 22 20 20 20 19 17 15 13 13 13 10 9 11 13 14 14 14 14 13 12 11 11 11 10 9 9 8 8 8 9 9 9 9 10 9 9 8 6 6
10 9 10 11 12 12 11 11 11 12 13 13 17 24 27 27 29 30 29 29 30 30 28 24 21 20 21 21 20 19 18 15 14 13 11 9 10 13 14 15 15 14 13 12 12 12 11 11 10 9 9 9 9 9 10 10 10 10 9 9 8 8 7
10 10 10 11 12 11 11 11 12 13 14 13 15 20 24 26 29 30 29 29 29 28 25 23 22 20 20 21 20 19 19 17 15 14 11 10 11 12 12 14 14 14 13 13 13 12 11 11 11 10 10 11 10 10 10 11 11 11 10 9 9 9 9
10 10 10 11 11 11 11 11 12 13 14 13 14 17 19 21 25 28 27 28 29 26 21 20 22 21 20 20 19 19 18 17 15 14 12 11 11 12 12 12 13 13 13 13 12 12 12 12 11 11 11 11 11 11 11 11 11 11 11 10 10 10 10
9 10 10 10 11 11 11 11 12 13 13 13 13 14 14 16 20 23 24 24 25 24 22 20 21 22 21 20 19 18 17 16 16 15 13 12 12 13 13 13 13 13 13 12 13 13 13 12 11 11 12 12 12 12 11 11 11 12 12 11 11 11 11
9 9 10 10 11 11 11 11 12 13 12 12 13 13 13 14 15 17 19 17 17 21 23 21 21 22 21 19 19 18 17 16 15 15 14 14 13 13 13 13 13 13 13 12 13 13 13 13 12 12 12 12 12 12 11 11 11 11 11 12 12 12 12
10 10 10 11 11 11 12 12 13 13 12 13 13 13 14 15 13 14 15 13 13 20 24 23 22 22 21 18 17 16 15 15 15 15 15 15 14 13 13 13 13 13 13 14 14 14 13 13 13 12 11 11 11 11 11 11 11 11 11 10 10 10 11
10 10 10 11 11 11 12 12 13 13 12 12 14 14 15 15 14 13 13 14 17 22 25 23 22 21 18 17 16 14 14 15 15 14 14 14 14 14 13 13 13 13 14 14 14 14 13 13 13 12 11 11 11 11 12 12 11 11 10 10 10 11 12
10 10 10 11 11 11 11 11 13 13 13 12 13 15 16 15 13 13 15 16 19 23 24 23 22 18 16 16 15 14 14 14 14 14 13 13 14 14 13 14 14 14 14 15 14 15 14 13 13 12 11 11 12 12 13 14 13 13 13 14 15 16 17
12 11 11 11 11 11 11 12 13 14 13 13 13 15 16 15 14 15 15 16 18 22 23 23 21 17 16 16 15 13 13 13 13 13 13 12 13 13 13 14 15 15 15 14 14 14 14 13 12 11 11 13 14 14 15 16 16 16 17 18 18 18 19
13 12 12 12 12 12 12 12 13 14 14 13 15 16 16 14 15 16 16 17 19 21 21 21 20 17 16 15 14 13 12 12 12 12 13 12 13 13 12 12 13 14 13 12 12 12 12 12 12 12 12 14 15 16 17 17 17 17 17 17 18 18 19
13 13 12 11 11 11 12 12 12 14 14 14 16 18 17 15 16 16 16 19 21 20 18 19 18 16 15 14 13 13 13 11 10 11 12 13 13 13 13 12 12 12 12 11 11 12 12 12 13 12 12 13 15 17 17 17 17 16 16 16 16 17 18
Wind_Direction
177 178 176 172 169 170 173 175 181 185 184 185 185 184 188 195 199 198 194 195 197 198 201 202 202 205 205 201 189 181 179 186 198 200 197 206 220 217 186 165 164 160 148 146 147 140 129 116 102 90 80 69 65 65 59 62 61 45 48 52 49 50 49
175 175 171 169 171 173 174 177 181 185 185 184 184 187 193 196 197 197 194 190 190 197 202 203 207 209 204 197 186 177 179 193 200 198 200 219 232 207 176 169 168 159 150 153 145 126 116 109 103 90 78 70 69 68 63 64 65 57 56 55 49 53 52
171 168 166 167 169 171 174 178 180 184 186 183 184 191 196 196 195 195 190 185 187 196 200 200 207 211 205 195 186 177 181 195 199 198 207 215 185 170 182 175 160 154 149 144 132 121 117 113 112 105 94 86 76 72 67 62 60 60 62 60 53 53 53
161 160 161 161 166 170 175 177 179 183 186 184 187 193 194 191 189 187 183 183 192 200 200 199 206 211 201 190 185 180 184 193 192 190 196 186 164 170 181 166 158 158 150 145 140 133 124 115 110 105 103 97 82 73 68 62 59 61 66 65 55 48 49
150 154 155 158 166 171 175 176 177 183 186 184 184 185 183 182 179 178 179 183 192 200 201 198 200 201 191 182 181 183 187 190 188 190 193 179 168 170 164 160 163 159 150 146 141 132 123 119 119 108 99 92 80 70 65 60 57 61 67 73 68 57 52
149 154 158 164 168 170 175 175 176 184 186 182 177 172 173 175 174 177 184 187 191 193 192 189 188 188 183 178 182 189 189 189 194 199 193 173 163 160 158 161 160 151 148 147 139 130 127 133 140 125 108 100 92 85 79 73 62 60 65 71 76 69 56
152 159 165 168 169 169 173 173 176 186 187 179 173 172 171 171 174 182 187 190 191 186 180 181 183 183 182 182 187 191 189 192 200 197 177 160 155 155 156 158 154 148 150 148 137 127 124 126 127 121 112 108 104 94 86 82 72 59 56 59 64 60 47
154 163 167 169 170 170 171 172 177 184 183 176 174 175 173 174 180 185 185 185 183 177 174 180 182 180 181 183 186 188 189 195 196 181 162 155 154 151 151 151 148 143 141 136 126 118 115 116 116 116 113 107 102 96 82 77 77 71 64 61 59 58 45
155 163 167 169 168 167 169 172 177 182 182 181 181 179 179 182 184 182 180 179 176 174 177 182 182 180 179 182 185 185 188 193 186 167 158 156 152 146 146 149 145 139 136 129 120 117 119 118 117 116 109 98 93 90 80 74 75 68 62 60 54 51 43
155 159 164 167 165 167 173 178 183 185 183 183 184 184 185 184 181 179 178 175 173 176 180 179 178 179 179 182 185 183 185 186 173 162 160 159 154 148 148 150 145 142 139 131 124 123 122 117 113 108 100 91 84 81 76 73 73 62 50 47 40 37 30
151 154 160 161 158 165 174 181 189 189 184 184 189 191 189 182 177 179 176 171 171 175 179 176 174 177 179 180 182 181 180 175 167 164 164 162 158 155 154 153 149 146 140 133 131 130 124 116 107 100 99 99 90 79 73 69 67 67 59 39 27 28 22
150 155 160 158 160 171 177 185 194 195 189 190 196 196 188 179 176 174 170 172 175 177 177 174 172 174 176 176 179 179 175 171 169 169 168 166 163 161 161 161 158 154 149 145 143 137 133 130 117 110 114 110 102 86 72 66 62 61 58 40 24 22 19
154 161 170 174 179 186 189 192 196 197 194 193 198 198 189 179 175 170 169 173 175 175 174 171 171 173 171 170 175 176 172 171 174 174 170 167 167 166 165 167 168 163 162 162 154 150 158 162 146 144 149 125 119 105 65 63 54 44 40 31 23 20 14
157 166 178 184 191 197 198 197 195 195 196 197 198 196 187 180 176 170 170 172 172 174 173 170 171 171 167 167 172 171 170 172 174 173 170 167 168 169 167 171 173 170 174 175 168 172 186 194 195 191 195 178 149 99 28 41 39 28 22 9 7 9 8
158 165 175 186 197 202 202 203 199 195 197 201 203 196 183 178 176 171 170 171 173 175 172 167 166 163 164 169 172 170 169 170 170 171 170 169 170 171 171 175 177 176 184 184 180 191 201 201 205 207 218 232 228 359 16 31 10 336 353 3 349 344 355
161 167 177 189 199 199 201 209 209 204 204 205 202 191 179 175 173 171 171 172 173 173 167 161 159 157 163 170 171 171 172 170 169 171 173 172 172 173 174 178 180 183 191 191 193 206 207 200 198 199 222 247 281 344 8 23 306 308 335 3 354 339 344
174 182 188 192 198 198 202 213 215 211 210 205 190 175 171 172 170 171 174 173 171 166 160 157 153 152 159 166 171 176 176 174 172 173 174 172 173 175 177 181 186 190 195 198 204 211 204 200 200 195 208 226 218 253 341 310 283 303 331 345 349 343 335
182 188 190 194 200 200 204 213 215 210 206 201 185 169 167 169 169 173 177 174 168 161 157 153 145 140 144 154 167 173 172 174 176 176 176 173 174 177 180 185 189 192 197 200 208 212 206 211 213 200 204 212 207 206 185 288 286 302 327 329 332 339 331
186 187 191 198 202 200 201 207 213 213 211 207 193 176 174 178 177 177 178 173 164 159 158 151 140 132 128 132 149 160 166 175 179 180 178 176 177 180 183 188 191 194 198 200 209 214 212 222 229 223 222 224 233 236 196 271 283 296 317 316 319 330 326
187 188 194 200 200 200 201 202 208 216 219 211 191 177 178 184 180 176 175 171 164 162 161 152 142 135 128 124 131 147 163 175 180 181 180 180 183 185 189 193 194 197 201 204 215 222 219 227 239 249 249 239 248 264 276 285 286 295 309 308 311 321 318
189 191 197 202 201 203 203 199 204 212 213 207 194 178 173 178 178 175 175 173 168 166 165 159 152 147 142 133 123 136 159 173 178 181 184 187 189 192 194 196 197 200 203 207 219 229 233 234 241 254 258 249 253 263 276 288 291 300 308 305 306 314 312
195 197 199 203 206 207 204 197 201 209 205 197 193 180 169 175 180 177 175 174 172 172 171 167 164 162 158 148 131 131 152 169 175 181 190 194 195 197 198 199 202 204 207 211 217 230 246 252 253 258 261 261 266 268 277 293 298 304 306 304 306 309 307
198 197 197 201 206 211 208 195 198 208 199 185 187 182 173 177 180 175 174 175 174 176 177 174 174 176 170 160 148 138 144 164 175 181 191 196 197 198 201 204 207 208 211 216 218 229 248 259 259 258 259 263 267 268 277 295 304 307 306 304 306 304 301
192 199 199 197 197 201 199 190 195 208 198 179 181 183 181 181 179 174 174 178 178 180 181 180 182 183 178 170 161 150 146 161 177 183 190 195 196 199 204 208 209 210 214 218 223 232 241 249 256 257 256 259 262 271 286 299 305 308 310 307 305 299 294
185 201 200 196 198 198 194 190 195 204 198 182 181 183 185 186 181 175 178 183 183 183 185 187 187 186 183 179 173 164 158 164 178 186 193 199 200 203 208 210 208 210 217 219 226 239 243 244 252 255 255 258 263 275 292 301 306 311 314 310 301 289 284
182 195 194 190 194 195 192 193 192 190 188 184 183 185 188 187 182 181 186 189 188 189 191 191 188 187 188 187 184 180 176 176 183 191 197 204 206 208 211 211 209 211 219 222 227 238 243 240 244 250 255 263 270 280 290 299 305 312 315 307 294 274 271
186 190 193 189 186 183 187 195 195 187 181 181 184 186 189 188 185 187 191 193 194 196 196 193 189 189 193 194 194 193 190 189 192 197 204 210 211 212 213 213 212 214 221 225 228 236 241 243 247 253 258 264 272 281 289 297 305 312 311 299 284 262 257
177 176 182 182 180 179 180 186 188 181 177 182 187 188 190 191 191 193 196 199 200 201 199 196 193 195 198 200 201 202 200 199 200 202 210 218 216 215 215 214 215 217 222 227 232 239 245 248 253 259 264 268 273 279 288 295 302 308 307 295 278 262 254
169 168 168 170 175 176 175 178 181 177 177 183 189 191 193 194 196 199 202 205 207 204 201 200 198 198 202 203 206 208 208 207 205 204 212 221 215 211 212 213 214 216 219 226 234 241 248 252 258 263 268 272 275 277 286 295 299 303 304 297 280 264 256
166 167 164 166 169 169 169 173 174 176 178 180 186 192 194 197 201 202 205 211 212 206 201 203 203 202 204 205 207 211 212 211 208 206 212 219 212 206 209 211 212 214 220 229 237 243 250 255 260 267 271 274 276 277 282 290 295 297 299 298 287 272 264
164 164 161 162 166 167 169 169 169 172 175 176 182 189 191 197 202 202 205 216 216 202 196 202 205 204 205 207 208 212 213 212 209 209 214 216 210 209 211 211 214 218 224 233 240 244 251 257 262 269 272 272 274 278 283 289 293 294 295 296 293 282 272
162 160 158 161 165 168 169 169 168 168 169 172 177 182 187 193 195 196 204 217 215 200 197 202 204 204 206 209 210 212 213 211 210 213 217 216 212 214 215 214 218 224 228 236 243 246 251 258 262 266 269 270 273 280 286 289 290 292 293 294 293 290 286
158 158 160 163 165 164 166 170 170 168 168 171 173 175 180 181 181 189 199 204 197 193 196 201 203 203 203 206 209 212 211 210 211 214 218 217 215 217 219 219 221 226 229 235 243 248 252 257 260 261 263 268 274 281 286 287 288 291 292 290 289 290 291
156 156 158 161 161 161 164 170 172 170 169 170 171 172 174 173 174 181 185 183 183 188 193 196 198 198 198 201 205 208 209 209 209 211 213 214 215 216 220 222 223 228 234 236 240 246 250 253 257 260 265 271 278 283 284 285 288 291 288 283 281 282 282
154 153 152 154 155 155 161 168 170 169 168 169 168 167 168 170 174 176 176 176 182 188 191 192 189 188 194 199 200 201 203 203 204 207 208 211 215 217 221 224 224 228 235 240 242 244 245 247 252 259 267 274 278 283 285 286 287 286 283 282 282 281 277
149 149 149 149 149 152 162 170 170 166 163 163 161 161 164 169 173 174 175 176 179 185 188 187 184 185 192 195 194 196 197 197 202 206 207 209 215 220 227 232 231 230 232 237 239 238 238 242 250 260 271 276 279 282 283 284 284 283 282 283 282 279 274
150 151 152 151 150 152 160 166 166 163 161 160 159 161 165 169 170 170 172 175 177 182 184 183 181 185 190 191 192 195 196 196 201 207 209 212 216 219 228 238 241 235 229 227 231 233 236 245 254 262 270 275 279 282 282 282 284 284 283 281 278 276 275
150 151 152 154 155 155 156 157 159 161 163 163 163 163 164 167 168 167 170 175 178 180 182 182 181 185 188 191 195 197 197 198 205 208 210 213 216 219 225 233 239 238 232 229 233 237 242 250 258 264 269 274 279 282 282 283 287 289 289 287 284 282 281